Weather History for Decorah, IA

Change the Weather History Date:

Sunday, March 31, 2013

  Actual Average Record
Temperature  
Mean Temperature 34 °F -  
Max Temperature 39 °F 52 °F 79 °F (1986)
Min Temperature 30 °F 30 °F 3 °F (1998)
Degree Days  
Heating Degree Days 30    
Moisture  
Dew Point 29 °F    
Average Humidity 82    
Maximum Humidity 100    
Minimum Humidity 52    
Precipitation  
Precipitation 0.00 in - - ()
Sea Level Pressure  
Sea Level Pressure 29.85 in    
Wind  
Wind Speed 8 mph (WNW)    
Max Wind Speed 20 mph    
Max Gust Speed 38 mph    
Visibility 6 miles    
Events Fog    
Averages and records for this station are not official NWS values.
T = Trace of Precipitation, MM = Missing Value Source: NWS Daily Summary

Daily Weather History Graph

Daily Weather History Graph

Search for Another Location

Airport:

Trip Planner

Search our weather history database for the weather conditions in past years. The results will help you decide how hot, cold, wet, or windy it might be!

Date:

Astronomy

Mar. 31, 2013 Rise Set
Actual Time 6:50 AM CDT 7:32 PM CDT
Civil Twilight 6:21 AM CDT 8:01 PM CDT
Nautical Twilight 5:47 AM CDT 8:35 PM CDT
Astronomical Twilight 5:12 AM CDT 9:11 PM CDT
Moon No Moon Rise 9:31 AM CDT (3/31)
Length of Visible Light 13h 40m
Length of Day
12h 42m
Waning Gibbous, 77% of the Moon is Illuminated
Mar 31
Waning Gibbous
Apr 2
Last Quarter
Apr 10
New
Apr 18
First Quarter
Apr 25
Full

Hourly Weather History & Observations

Time (CDT) Temp. Windchill Dew Point Humidity Pressure Visibility Wind Dir Wind Speed Gust Speed Precip Events Conditions
12:15 AM 35.6 °F 32.8 °F 35.6 °F 100% 29.85 in 0.2 mi WSW 3.5 mph - N/A Fog Fog
12:35 AM 35.6 °F 30.7 °F 35.6 °F 100% 29.85 in 0.5 mi West 5.8 mph - N/A   Mist
12:55 AM 35.6 °F 31.7 °F 35.6 °F 100% 29.84 in 0.2 mi WSW 4.6 mph - N/A Fog Fog
1:15 AM 35.6 °F 32.8 °F 35.6 °F 100% 29.84 in 0.8 mi WSW 3.5 mph - N/A   Mist
1:35 AM 33.8 °F 29.6 °F 33.8 °F 100% 29.84 in 2.0 mi West 4.6 mph - N/A   Partly Cloudy
1:55 AM 33.8 °F 29.6 °F 33.8 °F 100% 29.83 in 3.0 mi WSW 4.6 mph - N/A   Clear
2:15 AM 33.8 °F 30.8 °F 33.8 °F 100% 29.83 in 4.0 mi West 3.5 mph - N/A   Clear
2:35 AM 33.8 °F 29.6 °F 33.8 °F 100% 29.83 in 5.0 mi West 4.6 mph - N/A   Clear
2:55 AM 33.8 °F 28.6 °F 33.8 °F 100% 29.83 in 5.0 mi West 5.8 mph - N/A   Clear
3:15 AM 33.8 °F 29.6 °F 33.8 °F 100% 29.83 in 5.0 mi Variable 4.6 mph - N/A   Clear
3:35 AM 32.0 °F 27.5 °F 32.0 °F 100% 29.83 in 6.0 mi West 4.6 mph - N/A   Clear
3:55 AM 32.0 °F 26.4 °F 32.0 °F 100% 29.82 in 6.0 mi West 5.8 mph - N/A   Mist
4:15 AM 32.0 °F 28.7 °F 32.0 °F 100% 29.82 in 7.0 mi WSW 3.5 mph - N/A   Clear
4:35 AM 32.0 °F 26.4 °F 32.0 °F 100% 29.83 in 5.0 mi West 5.8 mph - N/A   Mist
4:55 AM 32.0 °F 27.5 °F 32.0 °F 100% 29.82 in 5.0 mi West 4.6 mph - N/A   Mist
5:15 AM 32.0 °F 26.4 °F 32.0 °F 100% 29.82 in 5.0 mi West 5.8 mph - N/A   Mist
5:35 AM 32.0 °F 25.6 °F 32.0 °F 100% 29.81 in 3.0 mi Variable 6.9 mph - N/A   Mist
5:55 AM 32.0 °F 24.8 °F 32.0 °F 100% 29.82 in 1.8 mi West 8.1 mph - N/A   Overcast
6:15 AM 32.0 °F 27.5 °F 32.0 °F 100% 29.81 in 0.2 mi WSW 4.6 mph - N/A Fog Light Freezing Fog
6:35 AM 32.0 °F 26.4 °F 32.0 °F 100% 29.81 in 0.2 mi Variable 5.8 mph - N/A Fog Fog
6:55 AM 32.0 °F 27.5 °F 32.0 °F 100% 29.80 in 0.2 mi West 4.6 mph - N/A Fog Fog
7:15 AM 32.0 °F 26.4 °F 32.0 °F 100% 29.80 in 0.2 mi Variable 5.8 mph - N/A Fog Fog
7:35 AM 32.0 °F 24.2 °F 32.0 °F 100% 29.81 in 0.2 mi West 9.2 mph - N/A Fog Fog
7:55 AM 32.0 °F 24.2 °F 32.0 °F 100% 29.81 in 0.5 mi West 9.2 mph - N/A Fog Fog
8:15 AM 32.0 °F 24.8 °F 32.0 °F 100% 29.81 in 0.8 mi WNW 8.1 mph - N/A   Overcast
8:35 AM 32.0 °F 23.6 °F 32.0 °F 100% 29.81 in 1.8 mi WNW 10.4 mph 19.6 mph N/A   Overcast
8:55 AM 32.0 °F 23.6 °F 32.0 °F 100% 29.81 in 2.0 mi WNW 10.4 mph - N/A   Overcast
9:15 AM 33.8 °F 27.0 °F 33.8 °F 100% 29.81 in 2.5 mi WNW 8.1 mph 17.3 mph N/A   Overcast
9:35 AM 33.8 °F 25.8 °F 33.8 °F 100% 29.81 in 3.0 mi WNW 10.4 mph 18.4 mph N/A   Overcast
9:55 AM 33.8 °F 27.7 °F 32.0 °F 93% 29.81 in 3.0 mi Variable 6.9 mph 13.8 mph N/A   Overcast
10:15 AM 33.8 °F 24.8 °F 32.0 °F 93% 29.81 in 3.0 mi WNW 12.7 mph 21.9 mph N/A   Overcast
10:35 AM 33.8 °F 27.0 °F 32.0 °F 93% 29.81 in 3.0 mi WNW 8.1 mph 18.4 mph N/A   Overcast
10:55 AM 35.6 °F 29.2 °F 33.8 °F 93% 29.81 in 4.0 mi WNW 8.1 mph 17.3 mph N/A   Overcast
11:15 AM 35.6 °F 27.5 °F 33.8 °F 93% 29.81 in 5.0 mi WNW 11.5 mph 20.7 mph N/A   Overcast
11:35 AM 35.6 °F 25.5 °F 32.0 °F 87% 29.82 in 6.0 mi WNW 17.3 mph 23.0 mph N/A   Haze
11:55 AM 35.6 °F 25.2 °F 30.2 °F 81% 29.82 in 9.0 mi WNW 18.4 mph 27.6 mph N/A   Overcast
12:15 PM 35.6 °F 26.2 °F 30.2 °F 81% 29.82 in 10.0 mi WNW 15.0 mph 21.9 mph N/A   Overcast
12:35 PM 35.6 °F 26.2 °F 30.2 °F 81% 29.83 in 9.0 mi WNW 15.0 mph 29.9 mph N/A   Overcast
12:55 PM 33.8 °F 23.9 °F 30.2 °F 87% 29.84 in 8.0 mi WNW 15.0 mph 28.8 mph N/A   Overcast
1:15 PM 35.6 °F 26.6 °F 30.2 °F 81% 29.84 in 8.0 mi NW 13.8 mph 24.2 mph N/A   Overcast
1:35 PM 35.6 °F 26.6 °F 30.2 °F 81% 29.84 in 9.0 mi WNW 13.8 mph 21.9 mph N/A   Overcast
1:55 PM 37.4 °F 28.9 °F 30.2 °F 75% 29.84 in 9.0 mi WNW 13.8 mph 21.9 mph N/A   Overcast
2:15 PM 37.4 °F 27.2 °F 30.2 °F 75% 29.83 in 10.0 mi NW 19.6 mph 29.9 mph N/A   Overcast
2:35 PM 37.4 °F 27.8 °F 28.4 °F 70% 29.82 in - NW 17.3 mph 38.0 mph N/A   Overcast
2:55 PM 39.2 °F 30.2 °F 28.4 °F 65% 29.83 in 10.0 mi NW 17.3 mph 25.3 mph N/A   Mostly Cloudy
3:15 PM 39.2 °F 30.5 °F 26.6 °F 61% 29.83 in 10.0 mi WNW 16.1 mph 24.2 mph N/A   Mostly Cloudy
3:35 PM 39.2 °F 29.8 °F 26.6 °F 61% 29.84 in 10.0 mi WNW 18.4 mph - N/A   Overcast
3:55 PM 39.2 °F 30.2 °F 24.8 °F 56% 29.84 in 10.0 mi NW 17.3 mph 26.5 mph N/A   Mostly Cloudy
4:15 PM 39.2 °F 31.2 °F 24.8 °F 56% 29.84 in 10.0 mi NW 13.8 mph 29.9 mph N/A   Mostly Cloudy
4:35 PM 37.4 °F 27.5 °F 23.0 °F 56% 29.84 in 10.0 mi NW 18.4 mph 31.1 mph N/A   Scattered Clouds
4:55 PM 37.4 °F 28.5 °F 23.0 °F 56% 29.85 in 10.0 mi NW 15.0 mph 26.5 mph N/A   Clear
5:15 PM 37.4 °F 27.5 °F 21.2 °F 52% 29.85 in 10.0 mi NW 18.4 mph 26.5 mph N/A   Mostly Cloudy
5:35 PM 39.2 °F 31.6 °F 23.0 °F 52% 29.86 in 10.0 mi WNW 12.7 mph 26.5 mph N/A   Mostly Cloudy
5:55 PM 37.4 °F 28.2 °F 23.0 °F 56% 29.86 in 10.0 mi NW 16.1 mph 26.5 mph N/A   Overcast
6:15 PM 37.4 °F 28.9 °F 23.0 °F 56% 29.87 in 10.0 mi NW 13.8 mph 20.7 mph N/A   Mostly Cloudy
6:35 PM 35.6 °F 26.6 °F 21.2 °F 56% 29.88 in 10.0 mi NW 13.8 mph 25.3 mph N/A   Partly Cloudy
7:15 PM 35.6 °F 25.9 °F 21.2 °F 56% 29.89 in 10.0 mi WNW 16.1 mph - N/A   Partly Cloudy
7:35 PM 33.8 °F 25.3 °F 21.2 °F 60% 29.90 in 10.0 mi WNW 11.5 mph 20.7 mph N/A   Clear
8:15 PM 33.8 °F 25.3 °F 21.2 °F 60% 29.92 in 10.0 mi NW 11.5 mph 17.3 mph N/A   Clear
8:35 PM 32.0 °F 23.6 °F 21.2 °F 64% 29.93 in 10.0 mi NW 10.4 mph 16.1 mph N/A   Partly Cloudy
8:55 PM 32.0 °F 22.1 °F 19.4 °F 60% 29.93 in 10.0 mi NW 13.8 mph 20.7 mph N/A   Partly Cloudy
9:15 PM 32.0 °F 22.5 °F 19.4 °F 60% 29.94 in 10.0 mi NW 12.7 mph 21.9 mph N/A   Partly Cloudy
9:35 PM 32.0 °F 22.5 °F 21.2 °F 64% 29.96 in 10.0 mi NW 12.7 mph - N/A   Partly Cloudy
9:55 PM 32.0 °F 22.5 °F 21.2 °F 64% 29.96 in 10.0 mi NW 12.7 mph - N/A   Clear
10:15 PM 30.2 °F 19.8 °F 21.2 °F 69% 29.97 in 10.0 mi NW 13.8 mph - N/A   Clear
10:35 PM 30.2 °F 21.3 °F 21.2 °F 69% 29.98 in 10.0 mi NW 10.4 mph - N/A   Clear
10:55 PM 30.2 °F 20.8 °F 21.2 °F 69% 29.98 in 10.0 mi NW 11.5 mph 18.4 mph N/A   Clear
11:15 PM 30.2 °F 21.3 °F 21.2 °F 69% 29.99 in 10.0 mi NW 10.4 mph 21.9 mph N/A   Clear
11:35 PM 30.2 °F 19.8 °F 19.4 °F 64% 29.99 in 10.0 mi NW 13.8 mph 24.2 mph N/A   Clear